Weather History for Louisville Bowman, KY

Change the Weather History Date:

Friday, January 17, 2003

  Actual Average Record
Temperature  
Mean Temperature 20 °F 34 °F  
Max Temperature 25 °F 42 °F 69 °F (1952)
Min Temperature 14 °F 26 °F -13 °F (1977)
Degree Days  
Heating Degree Days 46 31  
Month to date heating degree days 521  
Since 1 July heating degree days 2185  
Cooling Degree Days 0 0  
Month to date cooling degree days 0  
Year to date cooling degree days 0  
Moisture  
Dew Point 10 °F    
Average Humidity 68    
Maximum Humidity 81    
Minimum Humidity 57    
Precipitation  
Precipitation 0.00 in 0.11 in 1.31 in (2006)
Month to date precipitation 2.04  
Year to date precipitation 2.04  
Sea Level Pressure  
Sea Level Pressure 30.27 in    
Wind  
Wind Speed 8 mph (WNW)    
Max Wind Speed 12 mph    
Max Gust Speed -    
Visibility 10 miles    
Events      
T = Trace of Precipitation, MM = Missing Value Source: NWS Daily Summary

Daily Weather History Graph

Daily Weather History Graph

Search for Another Location

Airport:

Trip Planner

Search our weather history database for the weather conditions in past years. The results will help you decide how hot, cold, wet, or windy it might be!

Date:

Astronomy

Jan. 17, 2003 Rise Set
Actual Time 7:57 AM EST 5:48 PM EST
Civil Twilight 7:28 AM EST 6:17 PM EST
Nautical Twilight 6:56 AM EST 6:49 PM EST
Astronomical Twilight 6:24 AM EST 7:21 PM EST
Moon 5:00 PM EST (1/17) 7:34 AM EST (1/17)
Length of Visible Light 10h 48m
Length of Day
9h 50m
Waxing Gibbous, 99% of the Moon is Illuminated
Jan 17
Waxing Gibbous
Jan 18
Full
Jan 25
Last Quarter
Feb 1
New
Feb 9
First Quarter

Hourly Weather History & Observations

Time (EST) Temp. Windchill Dew Point Humidity Pressure Visibility Wind Dir Wind Speed Gust Speed Precip Events Conditions
12:53 AM 21.9 °F 10.4 °F 16.0 °F 78% 30.17 in 10.0 mi NW 11.5 mph - 0.00 in   Mostly Cloudy
2:53 AM 19.0 °F 10.0 °F 14.0 °F 81% 30.18 in 10.0 mi West 6.9 mph - N/A   Clear
3:53 AM 19.0 °F 7.5 °F 12.0 °F 74% 30.18 in 10.0 mi West 10.4 mph - N/A   Clear
4:53 AM 17.1 °F 7.6 °F 10.9 °F 77% 30.18 in 10.0 mi West 6.9 mph - N/A   Clear
5:53 AM 16.0 °F 4.4 °F 9.0 °F 74% 30.19 in 10.0 mi WNW 9.2 mph - N/A   Clear
6:53 AM 14.0 °F 6.5 °F 8.1 °F 77% 30.22 in 10.0 mi West 4.6 mph - N/A   Clear
7:53 AM 14.0 °F 2.0 °F 6.1 °F 71% 30.23 in 10.0 mi WNW 9.2 mph - N/A   Clear
8:53 AM 15.1 °F 3.3 °F 6.1 °F 68% 30.25 in 10.0 mi NW 9.2 mph - N/A   Clear
9:53 AM 16.0 °F 3.6 °F 5.0 °F 62% 30.27 in 10.0 mi NW 10.4 mph - N/A   Clear
10:53 AM 17.1 °F 10.0 °F 6.1 °F 62% 30.30 in 10.0 mi NW 4.6 mph - N/A   Clear
11:53 AM 19.9 °F 11.1 °F 8.1 °F 60% 30.29 in 10.0 mi NW 6.9 mph - N/A   Clear
12:53 PM 21.9 °F 12.5 °F 10.9 °F 63% 30.28 in 10.0 mi NW 8.1 mph - N/A   Scattered Clouds
1:53 PM 24.1 °F 14.4 °F 12.9 °F 62% 30.28 in 10.0 mi North 9.2 mph - N/A   Overcast
2:53 PM 24.1 °F 15.2 °F 12.9 °F 62% 30.28 in 10.0 mi NW 8.1 mph - N/A   Scattered Clouds
3:53 PM 25.0 °F 17.1 °F 12.0 °F 58% 30.29 in 10.0 mi Variable 6.9 mph - N/A   Scattered Clouds
4:53 PM 24.1 °F 15.2 °F 10.9 °F 57% 30.30 in 10.0 mi WNW 8.1 mph - N/A   Partly Cloudy
5:53 PM 23.0 °F 14.7 °F 10.0 °F 58% 30.31 in 10.0 mi NW 6.9 mph - N/A   Mostly Cloudy
6:53 PM 23.0 °F 13.1 °F 12.9 °F 65% 30.32 in 10.0 mi WNW 9.2 mph - N/A   Overcast
7:53 PM 21.9 °F 14.5 °F 9.0 °F 58% 30.34 in 10.0 mi WNW 5.8 mph - N/A   Mostly Cloudy
8:53 PM 21.0 °F 11.4 °F 10.9 °F 65% 30.34 in 10.0 mi West 8.1 mph - N/A   Scattered Clouds
9:53 PM 19.0 °F 11.1 °F 10.9 °F 71% 30.33 in 10.0 mi WNW 5.8 mph - N/A   Clear
10:53 PM 17.1 °F - 10.9 °F 77% 30.32 in 10.0 mi Calm Calm - N/A   Clear
11:53 PM 15.1 °F - 9.0 °F 77% 30.31 in 10.0 mi Calm Calm - N/A   Clear